Home   Weather   Visalia   Past weeks

Flag for USA Past Weather in Visalia, California, USA — Yesterday and Last 2 Weeks

Now
50 °F

Light rain. Mostly cloudy.


Feels Like: 46 °F
Forecast: 48 / 54 °F
Wind: 12 mph from South

Location: Visalia Municipal

Current Time: Jan 20, 2017 at 2:00:56 am

Latest Report: Jan 20, 2017 at 12:56 am


Visibility: 10 mi

Pressure: 29.81 "Hg

Humidity: 86%

Dew Point: 46 °F

Location of VisaliaLocation

Past Weather in Visalia — Graph

°F

Visalia Temperature Yesterday

Maximum temperature yesterday: 58 °F (at 12:56 pm)
Minimum temperature yesterday: 47 °F (at 7:56 am)
Average temperature yesterday: 52 °F

High & Low Weather Summary for the Past Weeks

 TemperatureHumidityPressure
High69 °F (Jan 8, 1:56 pm)100% (Jan 5, 12:08 am)30.29 "Hg (Jan 5, 12:08 am)
Low32 °F (Jan 6, 4:56 am)58% (Jan 9, 2:56 pm)29.81 "Hg (Jan 20, 12:56 am)
Average49 °F86%30.10 "Hg
* Reported Jan 5 12:08 am — Jan 20 12:56 am, Visalia, Weather by CustomWeather, © 2017

Note: Actual official high and low records may vary slightly from our data, if they occured in-between our weather recording intervals... More about our weather records

Advertising

Visalia Weather History for the Previous 24 Hours

Scroll right to see more
 ConditionsComfort  
Time TempWeatherWind HumidityBarometerVisibility
12:56 am
Fri, Jan 20
50 °FLight rain. Mostly cloudy.12 mph86%29.81 "Hg10 mi
11:56 pm
Thu, Jan 19
49 °FOvercast.8 mph93%29.85 "Hg10 mi
10:56 pm50 °FOvercast.7 mph89%29.86 "Hg10 mi
9:56 pm50 °FPassing clouds.6 mph86%29.87 "Hg10 mi
8:56 pm50 °FLight rain. Overcast.7 mph86%29.88 "Hg10 mi
7:56 pm50 °FLight rain. Overcast.No wind89%29.89 "Hg10 mi
6:56 pm51 °FOvercast.8 mph80%29.90 "Hg10 mi
5:56 pm51 °FLight rain. Mostly cloudy.10 mph77%29.91 "Hg10 mi
4:56 pm54 °FLight rain. Mostly cloudy.9 mph77%29.91 "Hg10 mi
3:56 pm55 °FMore clouds than sun.7 mph74%29.89 "Hg10 mi
2:56 pm55 °FLight rain. Overcast.3 mph74%29.90 "Hg10 mi
1:56 pm57 °FLight rain. Overcast.3 mph69%29.91 "Hg10 mi
12:56 pm58 °FBroken clouds.No wind72%29.93 "Hg10 mi
11:56 am55 °FSunny.3 mph77%29.96 "Hg10 mi
10:56 am52 °FPartly sunny.6 mph83%29.98 "Hg10 mi
9:56 am52 °FPartly sunny.8 mph89%29.98 "Hg10 mi
8:56 am51 °FSunny.8 mph89%29.96 "Hg10 mi
7:56 am47 °FSunny.7 mph97%29.93 "Hg10 mi
6:56 am49 °FPassing clouds.8 mph93%29.91 "Hg10 mi
5:56 am50 °FLight rain. Mostly cloudy.9 mph93%29.91 "Hg10 mi
4:56 am50 °FMostly cloudy.6 mph93%29.91 "Hg10 mi
3:56 am51 °FMostly cloudy.6 mph92%29.92 "Hg10 mi
2:56 am50 °FPassing clouds.7 mph93%29.94 "Hg10 mi
Weather by CustomWeather, © 2017

See weather overviewHow to use our weather pages